Content
SEND FEEDBACK

Daily
Averages
Monthly
Summary
United States of America

GREENSBURG, INDIANA


Home > North America > United States > Indiana
Elevation: 949 feet     Latitude: 39 20N     Longitude: 085 28W

WEATHER
 
SELECT A DAY
Number of Records: 173,213;   Date Range: 10/15/98 - 9/18/14
 
SHARE

PRINT THIS DATA

[ ← Previous Day ]
WEATHER ALMANAC - JULY 20, 2014
[ Next Day → ]
[ °C ]   °F
Weather ElementAverageHighLow
Temperature68.3 °F81 °F (2:53 pm)57 °F (6:53 am)
Dewpoint60.3 °F66.2 °F (9:50 am)55 °F (5:45 am)
Humidity77.7 %93 % (6:37 am)49 % (5:53 pm)
Barometer30.04 in30.09 in (9:50 am)30.01 in (2:53 am)
Wind Speed1.6 mph5.8 mph (1:53 am)
Weather ElementAverage
Visibility6 mi
Wind DirectionNNE (35.3 °)

Weather ElementTotal
Precipitation---
Cooling Degree Days4 (Base 65)
Growing Degree Days19 (Base 50)
Averaged from 32 records on July 20, 2014
WEATHER CONDITIONS BREAKOUT
WIND DIRECTION BREAKOUT
WEATHER BY HOUR - JULY 20, 2014
[ °C ]   °F
Local TimeTemperatureDewpointHumidityBarometerVisibilityWind DirectionWind SpeedGust SpeedPrecipitationEventsConditions
1:53 AM62.1 °F57.9 °F86 %30.02 in8.0 miEast (80°)5.8 mphClear
2:53 AM61.0 °F57.9 °F90 %30.01 in8.0 miCalmClear
3:53 AM60.1 °F57.0 °F90 %30.01 in4.0 miENE (70°)4.6 mphClear
4:53 AM60.1 °F57.0 °F90 %30.01 in3.0 miEast (80°)5.8 mphClear
5:21 AM60.1 °F57.0 °F90 %30.03 in3.0 miCalmPartly Cloudy
5:45 AM57.9 °F55.0 °F90 %30.04 in1.8 miNorth (350°)3.5 mphScattered Clouds
5:53 AM59.0 °F55.9 °F90 %30.04 in0.5 miCalmFogFog
6:07 AM60.1 °F57.0 °F90 %30.05 in1.5 miCalmMostly Cloudy
6:10 AM59.0 °F55.9 °F90 %30.05 in0.8 miCalmOvercast
6:37 AM57.9 °F55.9 °F93 %30.05 in0.2 miCalmFogFog
6:53 AM57.0 °F55.0 °F93 %30.04 in0.2 miCalmFogFog
7:34 AM59.0 °F57.0 °F93 %30.06 in1.0 miCalmMist
7:45 AM60.1 °F57.9 °F93 %30.06 in2.5 miCalmScattered Clouds
7:53 AM61.0 °F59.0 °F93 %30.06 in2.5 miCalmPartly Cloudy
8:20 AM63.0 °F60.1 °F90 %30.08 in3.0 miCalmClear
8:53 AM66.9 °F63.0 °F87 %30.07 in3.0 miCalmClear
9:50 AM73.4 °F66.2 °F78 %30.09 in6.0 miCalmHaze
9:53 AM73.0 °F64.9 °F76 %30.08 in6.0 miCalmHaze
10:53 AM75.9 °F64.0 °F67 %30.07 in10.0 miEast (90°)3.5 mphPartly Cloudy
11:53 AM78.1 °F62.1 °F58 %30.06 in10.0 miVariable3.5 mphPartly Cloudy
12:53 PM79.0 °F62.1 °F56 %30.06 in10.0 miVariable3.5 mphOvercast
1:53 PM79.0 °F61.0 °F54 %30.04 in10.0 miEast (100°)3.5 mphMostly Cloudy
2:53 PM81.0 °F62.1 °F52 %30.04 in10.0 miVariable3.5 mphMostly Cloudy
3:53 PM81.0 °F62.1 °F52 %30.02 in10.0 miCalmMostly Cloudy
4:53 PM80.1 °F61.0 °F52 %30.02 in10.0 miCalmClear
5:53 PM81.0 °F60.1 °F49 %30.02 in10.0 miCalmClear
6:53 PM81.0 °F64.0 °F56 %30.02 in10.0 miCalmPartly Cloudy
7:53 PM79.0 °F66.0 °F64 %30.02 in10.0 miCalmClear
8:53 PM75.0 °F66.0 °F73 %30.01 in10.0 miSE (130°)3.5 mphClear
9:53 PM71.1 °F64.0 °F78 %30.02 in10.0 miSSE (150°)3.5 mphClear
10:53 PM68.0 °F63.0 °F84 %30.04 in10.0 miCalmClear
11:53 PM64.9 °F62.1 °F90 %30.04 in6.0 miEast (80°)5.8 mphClear
Hourly data recorded from KGEZ, located miles away from Greensburg, Indiana







STORIES FROM OUR PARTNERS